GFSNGP_sfc_30mbdewp_108.txt.gz
Dewpoint
23 21 23 26 24 24 28 28 23 21 18 19 20 20 20 22 21 21 21 21 22 22 24 25 25 25 25 27 28 31 34 34 35 37 39 44 51 55 55 55 55 55 55 55
21 23 27 21 23 22 21 24 22 20 17 22 22 22 20 19 19 19 20 20 21 21 23 25 24 24 24 25 27 28 31 32 33 34 34 35 36 38 39 40 41 43 44 45
20 24 23 17 21 21 20 21 23 19 20 22 19 18 18 18 19 19 20 20 20 21 23 25 25 25 24 24 26 26 27 29 31 32 32 32 32 32 33 33 34 34 35 37
21 23 13 21 27 23 19 20 22 21 21 21 19 20 20 21 20 19 19 19 20 21 22 24 26 24 24 23 23 24 25 27 28 30 31 31 30 30 30 30 30 31 31 32
22 18 20 23 21 21 22 18 21 21 22 23 22 24 18 21 21 20 20 20 20 22 22 23 24 26 23 22 21 22 23 25 26 27 27 29 29 29 29 28 28 29 29 30
24 17 14 19 20 23 25 15 22 20 20 19 24 16 15 20 20 20 20 20 19 20 20 21 23 24 23 21 21 20 22 24 25 26 26 26 27 28 30 29 29 28 28 28
22 18 19 20 22 26 18 17 21 19 18 18 15 17 19 20 19 20 19 19 18 19 19 20 22 23 22 22 21 21 22 23 24 25 26 27 27 27 28 28 28 28 28 28
19 18 15 21 22 20 22 23 21 19 18 17 18 18 18 18 17 17 16 17 17 17 18 19 21 22 21 21 24 22 21 21 21 23 24 24 25 26 27 27 26 27 27 27
18 17 22 23 23 25 24 22 21 19 19 17 16 16 16 16 16 15 15 15 16 16 16 17 19 20 20 22 23 22 22 21 20 20 21 23 23 23 24 24 24 25 24 24
18 21 21 22 23 24 23 22 22 21 20 18 16 16 14 13 13 14 14 15 16 16 15 16 17 18 20 22 22 21 21 21 21 20 20 21 21 22 22 23 22 22 22 22
18 21 21 21 22 22 23 22 21 21 20 19 16 15 13 11 11 11 13 13 14 14 14 14 16 16 18 20 20 20 19 19 18 18 17 18 20 21 21 23 23 21 22 22
16 19 19 20 23 23 21 21 21 20 20 20 17 15 14 12 11 10 10 12 11 11 12 13 14 15 16 18 18 18 17 17 15 14 15 15 15 15 18 19 20 20 21 21
23 23 21 24 24 23 22 22 21 20 18 16 14 14 13 12 11 10 9 9 9 9 10 11 13 13 15 17 16 17 16 15 13 11 13 13 13 12 11 12 13 15 16 18
24 22 21 21 21 23 22 22 19 15 13 11 10 9 8 8 9 10 10 8 7 8 8 10 11 12 13 17 15 15 15 14 12 10 11 10 11 11 11 10 9 9 11 13
25 25 22 23 22 21 20 17 16 14 13 12 10 9 8 7 7 8 8 8 6 6 6 8 10 10 12 14 14 13 14 14 13 9 8 8 9 9 9 9 8 8 7 8
24 23 22 21 21 20 17 16 15 14 12 11 12 12 11 10 9 8 8 6 4 0 2 6 8 8 10 12 12 12 12 11 11 12 11 9 9 8 7 7 7 7 6 6
21 20 20 19 18 17 17 16 14 13 12 11 11 12 11 11 9 8 7 6 5 3 1 3 7 7 9 10 11 11 11 11 11 11 11 12 11 9 8 6 6 5 5 4
22 22 21 19 19 17 16 14 13 12 11 10 8 7 6 4 3 3 4 3 5 2 0 2 8 8 9 10 10 11 10 11 11 11 10 9 10 9 7 6 6 5 4 4
23 21 20 20 18 16 13 11 9 7 6 5 5 5 5 5 6 4 -0 2 4 4 2 1 7 8 9 11 8 8 8 8 9 9 9 8 7 7 8 7 6 5 3 2
20 19 18 17 15 13 9 5 3 1 1 2 3 4 6 4 3 4 5 6 4 6 5 3 2 3 8 9 8 7 7 6 6 5 5 6 6 6 6 7 7 6 4 4
18 17 15 13 10 7 2 1 -0 -0 2 1 1 3 5 6 4 2 7 7 5 5 8 4 3 1 3 7 8 5 6 6 6 4 3 3 3 4 4 3 3 4 5 5
15 13 11 8 5 2 2 3 3 3 3 3 4 5 7 9 8 5 5 7 8 6 6 7 5 5 2 1 6 7 7 6 6 5 3 -0 1 4 4 3 2 3 3 2
11 10 6 3 2 3 5 4 3 3 4 5 6 6 6 6 8 9 8 9 8 7 5 5 5 6 5 3 1 2 4 5 5 5 4 3 1 1 3 3 3 2 2 3
9 7 4 4 5 4 2 3 3 4 3 4 5 4 6 6 7 12 12 12 8 6 5 4 5 5 4 4 4 4 3 3 4 4 3 3 2 1 -0 1 2 2 1 0
8 6 6 6 4 3 5 6 7 8 10 10 10 12 10 10 10 9 9 9 11 11 10 9 8 9 9 8 7 6 6 5 6 4 3 2 3 3 3 1 1 2 2 2
9 8 8 9 7 8 11 12 9 10 11 12 12 13 11 10 12 13 13 13 12 12 11 10 9 8 8 8 8 7 7 7 6 5 5 4 4 3 3 3 3 3 1 2
12 11 12 12 13 13 13 14 14 15 12 12 12 8 6 7 6 8 9 10 9 7 6 4 1 3 5 5 6 6 6 6 6 6 5 5 5 5 4 3 2 2 2 2

GFSNGP_sfc_30mbdewp_114.txt.gz
Dewpoint
20 18 18 20 22 23 23 22 21 23 20 20 21 21 21 23 22 22 22 22 23 23 24 25 26 25 25 25 27 29 30 31 32 35 35 35 36 38 39 40 40 40 38 38
21 22 22 25 23 25 24 22 23 22 18 23 20 22 21 21 21 20 21 21 22 23 24 24 25 26 25 25 26 27 28 29 30 32 32 33 33 34 33 34 34 34 34 33
20 21 23 20 23 23 23 24 25 23 21 23 20 19 19 20 21 20 20 21 21 23 23 24 26 27 26 26 27 26 26 27 28 30 31 31 32 31 30 31 31 31 31 31
19 23 16 23 27 24 21 23 24 23 21 20 20 20 21 21 20 19 19 20 20 21 22 23 24 25 24 24 24 25 25 27 28 28 28 30 30 29 30 30 29 29 29 29
20 18 21 23 25 24 24 20 21 21 21 21 21 22 20 20 21 20 20 20 20 21 21 22 24 24 24 24 23 23 24 25 27 28 28 28 28 29 29 28 28 28 27 28
20 16 15 21 21 24 24 20 22 22 22 23 22 21 19 20 20 20 19 19 19 19 19 20 22 22 23 23 23 23 24 25 26 27 28 28 28 29 30 30 29 28 27 28
20 21 19 20 22 25 20 21 22 22 24 24 22 21 20 20 19 19 18 18 18 17 18 19 20 20 20 20 21 22 23 24 25 26 26 27 27 28 28 28 28 29 29 29
22 20 17 22 24 23 23 23 22 23 23 21 20 20 19 18 17 17 17 17 16 16 17 18 20 20 18 19 19 20 22 23 23 24 25 25 25 26 26 26 26 27 27 26
21 20 22 25 25 25 24 23 22 22 21 20 20 20 19 18 17 17 17 17 17 16 16 18 19 19 18 19 19 18 20 20 21 22 22 23 23 22 22 23 23 23 24 24
21 20 21 23 24 24 23 23 22 21 20 20 19 18 18 17 16 15 15 15 15 14 15 16 18 18 18 19 20 18 17 17 18 18 19 19 20 20 19 20 20 20 21 20
20 21 21 23 24 23 23 23 22 21 20 19 17 16 16 15 15 14 13 13 13 13 12 13 14 15 16 16 16 15 14 15 15 14 15 15 16 14 15 16 17 17 18 19
23 21 23 22 24 23 22 21 21 20 18 16 14 12 11 9 7 5 5 6 6 7 8 8 9 11 11 11 12 12 11 11 12 12 12 12 12 13 13 12 12 13 14 16
23 24 24 24 23 23 22 21 20 19 17 14 10 6 4 3 3 3 1 2 4 6 7 8 9 11 12 12 13 13 12 12 11 11 11 11 12 11 11 13 12 10 10 11
24 23 22 23 22 22 22 21 20 17 15 11 6 4 3 2 2 2 2 0 1 5 7 8 9 12 13 13 14 14 13 13 13 13 13 13 13 12 12 11 11 11 10 9
23 24 22 22 22 21 20 18 16 14 11 6 4 3 3 5 6 8 7 3 1 6 8 9 9 10 11 11 11 13 12 13 14 14 13 13 12 12 11 10 10 9 8 7
23 21 21 21 20 19 17 16 14 11 6 5 4 5 5 6 6 6 6 2 1 5 9 10 9 10 10 12 12 12 13 12 11 12 12 11 11 10 9 9 9 8 8 6
21 20 20 20 19 18 17 16 12 7 7 7 7 7 7 7 8 8 8 6 5 7 9 10 10 11 12 12 10 10 11 10 9 10 9 8 9 8 7 7 7 6 7 8
22 21 21 20 19 18 17 15 12 9 10 11 12 12 10 9 9 8 8 8 7 7 7 7 11 11 11 10 9 8 8 7 6 6 6 7 6 6 7 7 6 6 6 6
22 21 21 20 19 18 17 15 12 13 13 12 10 10 9 10 10 9 8 8 9 9 8 9 8 10 9 9 7 7 7 8 6 5 6 5 6 6 6 6 6 6 6 6
21 21 20 19 19 18 17 17 14 12 11 11 9 9 10 10 10 10 10 11 10 10 10 9 8 6 6 7 8 6 8 8 6 6 7 6 7 7 6 5 5 6 6 6
22 21 20 19 18 17 15 13 10 7 8 9 10 11 11 11 10 10 11 10 11 10 10 9 8 6 5 6 6 10 10 10 8 8 8 8 8 7 6 6 6 6 6 6
23 20 18 16 14 12 10 9 8 6 7 8 9 9 11 12 11 10 11 12 10 10 9 9 8 9 8 9 9 11 10 9 9 9 9 9 8 8 7 7 6 7 6 6
21 19 16 14 11 8 7 7 6 7 7 8 10 12 12 12 13 12 12 12 11 12 10 12 12 11 11 13 12 11 10 9 9 9 9 10 10 10 9 9 8 6 7 8
18 17 15 13 9 6 5 7 8 9 11 12 12 13 11 13 15 14 14 14 14 14 15 16 14 13 11 12 11 10 9 8 8 9 8 9 11 10 10 9 8 8 8 9
16 14 11 8 7 6 8 7 7 7 8 7 8 9 10 13 16 16 15 15 15 15 17 12 11 10 11 10 9 8 7 7 7 6 8 7 8 9 8 9 9 9 7 6
14 12 10 7 6 6 6 5 8 10 10 15 16 17 18 17 14 13 14 15 14 13 13 12 10 9 9 7 6 6 5 5 5 5 5 5 6 5 6 6 6 7 7 8
12 10 7 6 6 7 8 8 13 15 16 17 15 17 15 15 14 13 14 14 13 12 10 10 9 7 5 5 4 3 3 3 2 1 1 2 2 2 2 1 2 3 4 5

GFSNGP_sfc_30mbdewp_117.txt.gz
Dewpoint
17 16 15 15 17 21 23 23 23 22 23 22 23 23 24 25 25 24 24 23 24 25 26 27 28 29 30 28 28 29 29 30 31 32 33 33 33 33 35 35 36 37 38 38
20 20 21 22 23 23 25 26 23 25 22 25 25 25 24 24 24 22 22 22 23 24 24 25 27 29 30 29 28 29 29 29 30 31 30 31 31 30 31 31 32 32 33 33
19 20 21 22 25 24 27 24 27 22 23 25 23 22 22 22 23 21 21 21 20 22 23 24 26 27 28 29 29 28 28 29 29 29 29 30 30 29 29 29 29 30 30 30
20 21 16 24 27 26 26 26 25 23 25 24 21 23 23 23 22 20 20 20 20 21 21 23 23 24 24 24 25 25 26 27 29 29 29 30 29 29 29 29 28 28 28 28
20 18 22 23 25 24 24 22 27 23 22 22 22 22 22 22 21 20 19 19 19 19 19 20 21 21 22 23 23 24 25 26 27 28 28 28 29 29 30 30 29 28 28 28
23 17 16 23 24 24 24 21 23 23 22 22 22 25 21 21 20 19 18 18 18 18 18 19 21 18 21 21 22 23 25 25 26 26 27 27 28 29 30 30 30 30 28 29
20 21 22 21 22 25 21 22 24 24 25 24 24 24 22 21 19 19 18 17 18 18 18 20 21 21 20 19 20 23 23 24 24 25 25 25 26 26 27 27 27 28 28 27
21 23 21 23 24 23 26 26 25 27 28 24 22 21 20 19 18 18 17 17 17 17 19 20 20 20 20 20 21 22 22 22 23 22 24 23 22 23 24 23 24 24 25 25
23 22 24 26 28 27 26 26 26 25 24 23 21 21 20 18 17 17 17 18 17 18 18 19 20 20 18 20 21 20 21 21 21 23 20 21 21 19 19 21 20 21 21 22
22 22 23 25 25 25 26 25 25 24 23 22 21 20 19 18 16 15 15 15 14 13 15 17 18 18 19 18 20 20 19 20 21 20 22 20 18 18 16 16 17 18 19 17
22 22 22 25 25 26 25 24 23 23 23 22 20 19 18 18 16 14 13 13 11 11 10 10 13 14 16 17 17 18 18 19 19 17 19 19 18 16 15 15 14 15 16 18
27 23 24 24 25 25 24 23 23 22 20 20 19 17 14 10 5 3 3 3 3 4 4 4 8 10 10 11 13 13 13 14 15 15 15 15 15 16 16 15 14 12 11 13
26 25 26 26 25 24 23 23 22 20 17 14 10 7 4 2 2 1 -1 0 2 3 4 6 8 11 12 12 13 14 13 14 14 14 14 14 14 14 14 15 15 13 11 11
26 25 25 24 24 24 23 22 21 18 14 10 6 5 3 2 1 -0 -2 -1 2 4 6 7 9 10 12 13 14 14 14 14 15 15 15 15 15 14 14 13 13 13 12 10
25 24 24 24 23 22 22 21 18 16 12 7 5 3 3 4 7 8 7 3 5 7 9 8 9 10 10 12 12 14 13 13 15 15 14 14 14 13 12 12 11 11 11 10
24 23 23 22 22 21 20 19 17 14 9 6 4 4 5 6 6 5 3 5 5 9 10 11 10 11 12 13 14 13 14 12 12 13 12 11 11 11 10 10 9 9 9 11
22 22 22 21 21 20 19 18 16 12 7 5 5 6 6 8 9 10 8 7 9 10 10 11 11 12 13 12 13 12 12 11 9 9 9 9 8 8 8 8 7 7 7 10
23 23 23 22 20 19 19 16 12 9 9 9 11 13 11 11 10 10 10 10 10 10 10 10 11 12 11 11 11 9 10 9 8 7 8 8 8 7 8 8 7 7 7 7
23 22 22 21 21 20 18 16 12 13 16 16 14 12 13 12 11 11 11 11 12 13 12 11 10 10 10 10 9 8 10 10 9 7 9 7 9 8 8 8 7 7 8 8
23 23 22 21 21 20 19 19 18 16 15 13 13 13 12 12 12 11 12 13 13 13 11 11 10 8 7 5 7 8 11 11 9 9 10 9 10 9 10 8 9 9 10 10
24 23 23 23 22 22 20 18 16 14 14 13 12 13 13 13 12 13 13 14 15 12 11 10 9 8 6 9 8 11 12 11 9 10 10 12 13 12 10 11 11 11 10 9
25 23 22 21 20 18 17 15 13 12 11 13 14 14 14 13 13 13 14 16 12 12 10 10 9 13 11 13 10 13 11 10 9 11 10 10 10 10 9 9 9 9 10 11
24 22 20 19 17 16 14 13 11 11 11 12 12 13 14 14 13 13 16 14 12 15 11 15 16 14 13 13 14 13 12 10 10 9 11 10 8 10 10 9 9 8 8 8
23 21 19 18 15 12 10 10 10 11 12 13 15 16 14 15 15 13 14 16 15 15 14 18 14 13 12 13 12 11 9 9 10 12 8 9 9 7 7 8 7 8 9 9
23 20 18 14 11 9 8 8 9 9 11 9 10 12 13 14 18 19 15 16 16 14 19 14 12 10 11 10 10 8 8 7 7 6 8 6 4 7 6 6 7 8 6 7
19 17 15 13 10 8 7 7 7 8 8 13 15 16 18 18 15 13 15 14 13 13 14 13 12 9 9 8 6 6 5 4 4 3 2 2 3 3 4 3 2 3 4 4
17 15 13 10 9 9 8 8 13 14 15 17 17 19 18 17 15 14 14 15 14 11 11 11 10 8 7 4 4 3 2 2 2 -0 0 0 -0 -0 0 -0 -0 -0 2 2

GFSNGP_sfc_30mbdewp_120.txt.gz
Dewpoint
17 14 11 14 15 15 19 20 20 24 25 23 24 24 25 25 25 24 24 23 24 25 26 26 27 29 31 29 29 30 29 29 30 31 31 31 31 32 32 32 32 33 33 36
19 17 17 17 19 18 21 25 26 26 24 24 26 27 24 24 24 22 23 23 23 23 22 24 25 27 28 29 28 29 28 29 30 30 30 30 29 29 30 30 31 31 31 31
16 20 22 19 24 26 26 26 24 22 24 25 24 23 23 23 23 22 20 19 19 20 20 22 21 23 23 24 26 26 28 28 29 29 29 30 30 29 29 29 29 29 29 29
20 21 16 24 27 25 25 26 30 24 25 26 23 24 24 24 21 19 18 18 18 19 19 20 20 20 21 21 23 24 25 26 26 28 28 29 29 29 29 29 28 27 27 28
21 17 24 23 24 25 24 25 26 25 25 24 23 22 22 21 19 19 19 19 19 19 18 20 21 20 20 21 21 22 22 23 24 24 25 26 27 28 29 29 28 27 27 26
20 21 18 24 24 26 26 21 27 24 23 22 23 22 21 21 19 19 19 19 19 20 20 21 22 21 20 20 22 22 23 21 22 23 21 23 25 25 26 27 28 27 26 26
20 20 24 23 24 25 21 23 26 24 24 24 24 25 23 20 19 19 19 19 19 20 20 21 21 20 20 20 21 23 22 24 20 21 21 19 21 22 23 23 22 24 24 24
21 22 20 22 23 23 27 27 27 29 28 25 23 22 21 20 19 19 19 19 19 19 19 20 20 19 19 20 21 22 22 21 23 21 20 19 17 18 19 20 21 19 19 20
25 24 25 27 30 29 28 29 29 27 25 23 22 20 20 19 18 18 18 18 19 18 18 19 19 19 18 18 22 20 21 21 21 23 21 20 17 15 15 16 16 18 17 16
23 23 24 26 26 27 28 28 27 26 24 23 22 21 20 18 15 14 14 14 14 14 15 15 18 17 18 19 19 21 19 21 21 20 21 19 19 17 15 14 14 14 15 15
24 24 23 25 28 27 27 27 25 25 24 23 21 20 20 18 16 16 15 13 11 10 9 12 14 14 15 17 18 18 19 18 20 19 19 21 20 18 17 16 14 13 14 15
26 25 25 26 28 27 25 25 24 23 22 21 20 19 17 13 7 4 4 3 4 4 5 7 10 12 13 14 15 15 17 17 17 18 18 18 18 19 19 19 15 13 12 13
28 27 29 28 27 25 24 24 23 22 21 19 16 13 4 1 1 1 1 2 3 4 6 8 9 11 14 15 16 15 15 17 17 17 17 17 17 17 16 17 16 15 13 10
28 27 26 26 25 25 24 23 22 19 16 12 8 5 4 2 1 -1 -0 3 4 7 7 8 10 12 13 16 17 17 15 16 18 18 17 17 17 16 16 15 14 14 16 12
26 25 25 25 25 24 23 21 17 15 11 8 7 5 4 6 9 9 7 6 8 10 10 9 10 12 12 16 15 17 15 14 17 17 16 15 15 15 14 14 13 13 14 13
25 24 25 24 23 23 22 20 17 13 10 8 6 6 8 8 6 5 7 11 10 11 12 12 11 13 14 15 17 16 16 12 13 14 14 13 13 13 12 12 12 11 12 12
24 24 24 23 23 22 21 20 17 13 9 7 7 7 8 10 11 10 10 10 12 12 12 13 13 13 13 13 16 14 14 14 11 12 12 11 12 11 11 11 11 10 11 12
24 25 24 24 23 23 21 20 17 12 9 10 13 12 11 12 12 12 11 12 12 11 12 12 12 14 12 12 13 13 13 13 12 11 12 11 11 11 11 12 11 10 11 12
24 25 28 26 24 22 21 18 15 16 16 15 12 12 15 13 12 12 13 11 12 15 13 12 11 11 10 10 10 12 13 14 13 12 13 11 13 13 13 13 12 12 12 12
25 27 29 28 23 23 21 20 18 17 17 15 15 14 14 14 13 12 13 15 15 14 13 11 12 10 9 9 8 10 14 14 13 13 13 13 13 13 14 13 13 13 13 12
27 27 26 25 23 21 21 19 17 15 16 15 14 14 13 14 13 14 13 18 14 13 12 11 10 10 10 10 9 16 15 14 12 13 13 13 13 12 11 12 11 11 12 11
28 25 24 23 21 20 20 18 16 16 14 15 15 15 14 13 13 13 15 17 15 12 11 13 16 14 12 12 13 16 15 13 12 13 12 13 10 9 10 10 10 11 11 11
25 24 22 21 20 19 18 16 15 14 15 15 15 15 15 14 14 15 17 13 15 14 12 18 14 13 11 14 16 15 13 12 12 12 12 10 10 10 8 9 9 9 9 10
25 23 21 21 19 17 14 13 13 14 15 14 15 16 17 16 16 16 18 16 16 16 15 16 13 11 10 15 14 12 11 11 10 9 9 9 6 7 7 7 7 7 5 5
24 22 21 18 16 14 12 11 11 11 12 11 13 16 16 17 23 20 19 19 15 15 16 13 12 9 13 13 10 9 9 8 8 8 7 5 5 5 5 5 4 3 3 3
23 21 18 16 15 12 10 9 10 12 11 15 15 16 18 18 17 17 16 15 14 13 17 16 14 10 11 8 7 7 6 7 7 4 2 4 3 3 2 2 0 0 -0 0
24 21 17 15 12 11 10 11 13 13 15 18 19 22 20 19 17 17 18 16 16 13 16 13 13 10 9 5 6 4 4 4 3 -0 1 2 0 -1 -0 -3 -3 -3 -2 -1

GFSNGP_sfc_30mbdewp_123.txt.gz
Dewpoint
17 18 16 17 14 13 17 19 19 22 25 24 24 24 25 24 24 23 22 22 23 23 23 24 24 24 26 26 27 28 28 28 29 30 31 31 30 30 29 30 31 30 30 31
18 19 19 19 19 19 17 18 23 26 24 25 26 26 24 24 23 22 21 19 20 20 19 20 20 20 21 22 25 25 26 26 27 28 29 30 30 29 28 28 29 30 29 29
15 19 23 19 18 20 20 22 25 24 25 25 24 23 23 23 22 20 19 18 18 18 19 20 21 20 20 21 22 21 22 23 23 26 26 28 29 29 27 27 27 26 28 28
18 19 16 21 27 26 27 26 26 25 25 24 23 23 23 24 20 18 18 18 18 19 19 20 21 21 20 21 21 21 18 21 20 21 22 24 25 26 28 26 25 25 25 26
19 19 20 24 24 25 23 24 26 25 25 23 23 22 22 20 20 19 19 19 19 20 20 20 21 21 20 21 21 21 19 18 19 17 20 21 22 23 23 24 23 22 23 23
23 20 17 25 26 26 26 21 29 27 24 23 22 21 19 20 19 18 19 19 19 20 20 20 20 20 20 19 21 21 23 20 19 17 16 17 19 20 22 20 20 20 19 20
21 20 22 24 25 27 21 21 27 26 24 23 23 24 22 20 19 19 18 17 19 19 18 19 19 18 18 19 19 21 21 23 20 20 17 16 16 17 18 19 17 17 17 18
22 21 18 26 24 23 26 29 27 26 25 24 23 21 20 19 19 19 19 16 17 16 17 17 17 18 16 17 19 19 21 21 20 20 19 17 16 15 15 15 15 15 15 15
25 23 26 28 29 29 30 29 27 26 25 23 20 19 19 19 19 18 17 18 16 14 15 17 15 16 16 17 19 17 19 19 20 18 19 18 16 15 14 14 14 14 14 14
23 26 26 27 28 30 30 28 26 25 23 21 19 20 19 18 18 16 14 16 17 13 13 13 14 14 16 17 18 19 17 19 19 20 18 18 17 16 16 14 13 14 14 14
24 24 24 25 29 28 28 27 25 24 22 21 21 19 18 16 16 14 13 12 11 12 12 13 14 15 16 17 18 18 19 18 19 19 19 19 20 18 17 17 14 13 14 16
21 24 23 26 28 27 26 25 25 24 22 21 21 19 18 16 16 15 13 8 7 8 10 11 12 14 16 17 16 17 18 18 17 18 18 18 17 16 21 19 18 14 11 14
28 27 28 29 27 27 26 25 24 23 22 21 20 18 17 10 5 6 5 6 8 9 10 11 12 13 14 18 16 15 15 18 17 16 16 17 16 15 14 15 16 15 11 9
29 28 27 27 26 26 25 25 24 22 21 19 18 7 3 4 4 5 7 9 10 10 10 12 12 13 15 17 17 13 13 15 17 15 14 13 14 13 13 13 11 13 12 9
26 26 26 28 27 28 25 23 21 20 18 13 7 5 6 6 6 8 10 11 11 11 11 10 11 12 15 15 17 15 12 12 13 12 12 12 12 12 12 11 11 11 12 10
27 25 26 27 28 28 25 20 17 14 11 9 10 11 10 9 10 11 13 13 11 10 11 10 10 11 13 13 14 14 14 12 12 11 9 10 12 10 11 10 10 10 10 9
25 24 25 25 27 28 25 19 15 11 9 9 11 10 11 10 9 9 11 12 12 12 12 12 12 12 9 9 11 14 12 13 13 13 10 10 12 10 11 11 10 10 10 10
25 26 26 26 27 28 27 21 15 12 11 12 12 12 11 10 10 10 10 11 10 9 9 10 10 12 10 8 9 13 14 13 14 13 14 12 13 14 13 13 12 11 11 11
26 26 26 27 29 30 28 20 16 16 14 12 11 10 11 11 9 8 9 10 10 9 10 10 11 11 9 11 8 10 15 13 13 13 13 13 12 12 12 11 12 11 11 13
27 29 31 31 31 28 21 18 17 15 13 12 12 12 10 9 9 10 10 13 14 13 12 11 11 14 11 8 9 15 14 12 12 13 12 12 11 9 9 10 10 10 11 10
29 30 28 26 24 22 21 19 16 14 14 13 11 11 10 10 10 11 13 8 9 12 13 10 12 13 11 11 12 14 13 11 11 11 11 10 8 9 8 8 8 9 10 9
27 25 23 23 21 20 20 18 17 15 14 13 12 12 12 10 11 13 15 17 14 11 13 15 14 11 9 12 16 12 11 11 10 10 9 9 7 6 7 7 7 7 6 5
25 24 23 22 20 19 18 18 16 14 13 13 13 13 11 11 11 12 11 15 13 13 17 14 12 8 10 14 11 9 9 9 7 7 7 4 4 5 5 5 5 4 3 3
23 22 21 20 19 17 15 15 14 15 14 15 14 12 16 12 16 19 16 16 13 16 15 10 8 12 13 10 8 7 6 6 6 4 3 3 3 2 2 2 1 1 -0 -0
22 21 19 18 17 15 14 14 14 15 14 13 13 15 19 23 18 18 17 15 15 15 13 8 9 9 6 4 6 5 5 5 3 -0 0 2 1 -1 -1 -2 -3 -3 -3 -3
22 20 19 18 17 14 13 13 12 13 13 13 15 16 18 19 16 18 17 14 16 15 15 12 9 7 4 4 3 3 3 2 -2 -1 -0 -0 -3 -3 -5 -6 -6 -5 -5 -4
24 21 19 18 16 13 12 13 14 13 15 15 15 17 18 16 18 15 15 15 14 14 13 11 8 4 4 2 2 0 1 -3 -5 -2 -2 -5 -5 -7 -8 -8 -7 -8 -5 -4